Location: Malvern Link
(52.1333°N, 2.3000°W)
Time: 09:58:03
(UTC+00:00)

SPROUT - Pass Details

Date: 08 July 2022
Orbit: 588 x 598 km, 97.9° (Epoch: 17 August)

Event Time Altitude Azimuth Distance (km) Brightness Sun altitude
Exits shadow 01:25:41 22° 209° (SSW) 1,300 ? -13.8°
Maximum altitude 01:27:49 38° 262° (W) 916 ? -13.7°
Drops below altitude 10° 01:31:44 10° 332° (NNW) 1,933 ? -13.5°
Sets 01:34:03 0° 340° (NNW) 2,842 ? -13.4°
